Simultaneous Nadir Overpasses (SNOs) Predictions

Prediction of SNOs between AQUA and GOES-15 Satellite Orbit:

Table of predicted SNOs for the next 14.0 days since TLE Epoch: 1/27/2012
Index Date Time (AQUA) AQUA Lat,Lon GOES-15 Lat,Lon Distance(km) Time Diff (sec)
1 01/28/2012 22:34:45 -0.06,-134.88 0.02,-134.36 58.55 80
2 01/30/2012 22:22:42 0.53,-131.95 0.01,-134.30 267.57 80
3 01/31/2012 10:44:00 0.59,-137.11 -0.01,-134.28 321.86 80
4 02/02/2012 10:32:01 0.03,-134.19 0.01,-134.21 2.55 80
5 02/04/2012 10:20:07 -0.61,-131.31 0.01,-134.14 322.09 80
6 02/04/2012 22:41:35 -0.51,-136.52 -0.01,-134.12 272.09 80
7 02/06/2012 22:29:45 0.10,-133.64 0.00,-134.04 45.59 80
8 02/08/2012 22:17:59 0.68,-130.78 0.00,-133.95 361.12 80
9 02/09/2012 10:39:21 0.40,-135.97 -0.00,-133.92 231.77 80




NCC Satellite Simultaneous Nadir Overpasses (SNOs) Prediction Service
